TimeEDT,TemperatureF,Dew PointF,Humidity,Sea Level PressureIn,VisibilityMPH,Wind Direction,Wind SpeedMPH,Gust SpeedMPH,PrecipitationIn,Events,Conditions,WindDirDegrees,DateUTC
12:53 AM,72.0,68.0,87,29.75,8.0,Calm,Calm,-,N/A,,Clear,0,2013-06-27 04:53:00
1:53 AM,69.1,66.0,90,29.75,10.0,West,5.8,-,N/A,,Clear,260,2013-06-27 05:53:00
2:53 AM,68.0,64.9,90,29.74,10.0,Calm,Calm,-,N/A,,Clear,0,2013-06-27 06:53:00
3:53 AM,69.1,66.0,90,29.74,10.0,NW,3.5,-,N/A,,Clear,320,2013-06-27 07:53:00
4:53 AM,68.0,64.9,90,29.75,7.0,Calm,Calm,-,N/A,,Clear,0,2013-06-27 08:53:00
5:53 AM,66.9,64.0,90,29.75,5.0,Calm,Calm,-,N/A,,Clear,0,2013-06-27 09:53:00
6:53 AM,68.0,64.9,90,29.76,3.0,Calm,Calm,-,N/A,,Clear,0,2013-06-27 10:53:00
7:45 AM,69.8,66.2,88,29.77,4.0,Calm,Calm,-,N/A,,Partly Cloudy,0,2013-06-27 11:45:00
7:53 AM,70.0,66.9,90,29.75,3.0,WSW,3.5,-,N/A,,Scattered Clouds,250,2013-06-27 11:53:00
8:53 AM,73.0,69.1,87,29.76,6.0,SW,4.6,-,N/A,,Partly Cloudy,230,2013-06-27 12:53:00
9:18 AM,73.4,69.8,88,29.78,6.0,WNW,3.5,-,N/A,,Mostly Cloudy,290,2013-06-27 13:18:00
9:53 AM,73.9,69.1,85,29.76,6.0,WSW,4.6,-,N/A,,Haze,240,2013-06-27 13:53:00
10:06 AM,75.2,69.8,83,29.77,7.0,West,5.8,-,N/A,,Scattered Clouds,260,2013-06-27 14:06:00
10:53 AM,79.0,70.0,74,29.76,10.0,West,5.8,-,N/A,,Clear,270,2013-06-27 14:53:00
11:53 AM,81.0,70.0,69,29.76,10.0,West,9.2,-,N/A,,Mostly Cloudy,270,2013-06-27 15:53:00
12:53 PM,80.1,68.0,67,29.76,10.0,West,8.1,-,N/A,,Scattered Clouds,260,2013-06-27 16:53:00
1:53 PM,82.0,68.0,62,29.76,10.0,West,10.4,-,N/A,,Clear,280,2013-06-27 17:53:00
2:53 PM,80.1,66.0,62,29.76,10.0,West,15.0,-,N/A,,Clear,260,2013-06-27 18:53:00
3:45 PM,80.6,66.2,61,29.76,10.0,WSW,11.5,-,N/A,,Mostly Cloudy,250,2013-06-27 19:45:00
3:53 PM,80.1,66.9,64,29.74,10.0,WSW,13.8,-,N/A,,Mostly Cloudy,250,2013-06-27 19:53:00
4:04 PM,78.8,66.2,65,29.75,10.0,West,11.5,-,N/A,,Scattered Clouds,260,2013-06-27 20:04:00
4:53 PM,80.1,69.1,69,29.72,10.0,West,10.4,-,N/A,,Clear,270,2013-06-27 20:53:00
5:53 PM,80.1,69.1,69,29.71,10.0,West,8.1,-,N/A,,Clear,260,2013-06-27 21:53:00
6:53 PM,77.0,68.0,74,29.70,10.0,West,8.1,-,N/A,,Clear,270,2013-06-27 22:53:00
7:53 PM,75.9,68.0,76,29.70,10.0,West,6.9,-,N/A,,Clear,260,2013-06-27 23:53:00
8:53 PM,73.9,66.9,79,29.70,9.0,WSW,4.6,-,N/A,,Clear,250,2013-06-28 00:53:00
9:53 PM,73.0,66.9,81,29.70,10.0,NNE,3.5,-,N/A,,Clear,20,2013-06-28 01:53:00
10:53 PM,73.0,66.9,81,29.71,9.0,North,4.6,-,N/A,,Overcast,360,2013-06-28 02:53:00
11:08 PM,73.4,66.2,78,29.71,8.0,NNW,3.5,-,N/A,,Scattered Clouds,340,2013-06-28 03:08:00
11:53 PM,71.1,66.9,87,29.67,6.0,Calm,Calm,-,N/A,,Mostly Cloudy,0,2013-06-28 03:53:00